Tracking 28790 objects as of 19-Apr-2024
HD Live streaming from Space Station
objects crossing your sky now

ICEYE-X5

Track ICEYE-X5 now!
10-day predictions


NORAD ID: 44389
Int'l Code: 2019-038C
Perigee: 527.0 km
Apogee: 551.3 km
Inclination: 97.9 °
Period: 95.3 minutes
Semi major axis: 6910 km
RCS: Unknown
Launch date: July 5, 2019
Source: (FIN)
Launch site: VOSTOCHNY COSMODROME (VOSTO)
Your satellite tracking list
Your tracking list is empty




NASA's NSSDC Master Catalog

Two Line Element Set (TLE):
1 44389U 19038C   24109.88656841  .00023714  00000-0  14010-2 0  9996
2 44389  97.9180 101.6251 0017590 137.1395 223.1208 15.11367348262198
Source of the keplerian elements: AFSPC